| time (UTC) | temp F | wind direction | speed MPH | gust MPH | rain 1hr in | rain 24hr in | rain mn in | humidity % | barometer mb |
| 20260503024512 | 55 | 0 | 0.0 | 0.0 | 0.00 | 0.00 | 0.00 | 1 | 1018.6 |
| 20260503023012 | 55 | 92 | 1.0 | 5.0 | 0.00 | 0.00 | 0.00 | 1 | 1018.2 |
| 20260503021512 | 56 | 77 | 0.0 | 4.0 | 0.00 | 0.00 | 0.00 | 1 | 1018.2 |
| 20260503020012 | 56 | 0 | 0.0 | 0.0 | 0.00 | 0.00 | 0.00 | 1 | 1018.5 |
| 20260503011512 | 57 | 0 | 0.0 | 0.0 | 0.00 | 0.00 | 0.00 | 9 | 1018.6 |
| 20260503010012 | 57 | 0 | 0.0 | 0.0 | 0.00 | 0.00 | 0.00 | 13 | 1018.8 |
| 20260503001513 | 58 | 0 | 0.0 | 0.0 | 0.00 | 0.00 | 0.00 | 20 | 1019.4 |
| 20260502234512 | 58 | 0 | 0.0 | 0.0 | 0.00 | 0.00 | 0.00 | 18 | 1019.8 |
| 20260502233012 | 58 | 0 | 0.0 | 0.0 | 0.00 | 0.00 | 0.00 | 16 | 1019.9 |
| 20260502231512 | 58 | 0 | 0.0 | 0.0 | 0.00 | 0.00 | 0.00 | 18 | 1019.9 |
| 20260502230012 | 58 | 0 | 0.0 | 0.0 | 0.00 | 0.00 | 0.00 | 17 | 1020.0 |
| 20260502224512 | 58 | 0 | 0.0 | 0.0 | 0.00 | 0.00 | 0.00 | 17 | 1019.8 |
| 20260502223012 | 58 | 0 | 0.0 | 0.0 | 0.00 | 0.00 | 0.00 | 18 | 1020.0 |
| 20260502221512 | 58 | 0 | 0.0 | 0.0 | 0.00 | 0.00 | 0.00 | 13 | 1019.9 |
| 20260502220013 | 58 | 0 | 0.0 | 0.0 | 0.00 | 0.00 | 0.00 | 15 | 1020.0 |
| 20260502214512 | 58 | 0 | 0.0 | 0.0 | 0.00 | 0.00 | 0.00 | 17 | 1020.0 |
| 20260502213012 | 58 | 0 | 0.0 | 0.0 | 0.00 | 0.00 | 0.00 | 20 | 1020.1 |
| 20260502211511 | 58 | 0 | 0.0 | 0.0 | 0.00 | 0.00 | 0.00 | 26 | 1020.0 |
| 20260502210015 | 59 | 101 | 0.0 | 2.0 | 0.00 | 0.00 | 0.00 | 38 | 1019.8 |
| 20260502204512 | 60 | 0 | 0.0 | 0.0 | 0.00 | 0.00 | 0.00 | 50 | 1019.9 |
| 20260502203012 | 60 | 0 | 0.0 | 0.0 | 0.00 | 0.00 | 0.00 | 52 | 1019.9 |
| 20260502201512 | 60 | 0 | 0.0 | 0.0 | 0.00 | 0.00 | 0.00 | 54 | 1019.7 |
| 20260502200012 | 61 | 232 | 0.0 | 2.0 | 0.00 | 0.00 | 0.00 | 56 | 1019.7 |
| 20260502194512 | 61 | 231 | 0.0 | 2.0 | 0.00 | 0.00 | 0.00 | 58 | 1019.6 |
| 20260502193012 | 61 | 232 | 0.0 | 3.0 | 0.00 | 0.00 | 0.00 | 59 | 1019.6 |
| 20260502191513 | 61 | 249 | 1.0 | 3.0 | 0.00 | 0.00 | 0.00 | 60 | 1019.4 |
| 20260502190012 | 62 | 243 | 1.0 | 4.0 | 0.00 | 0.00 | 0.00 | 61 | 1019.3 |
| 20260502184512 | 63 | 228 | 3.0 | 8.0 | 0.00 | 0.00 | 0.00 | 60 | 1019.4 |
| 20260502183012 | 64 | 236 | 4.0 | 10.0 | 0.00 | 0.00 | 0.00 | 58 | 1019.5 |
| 20260502181512 | 64 | 241 | 5.0 | 8.0 | 0.00 | 0.00 | 0.00 | 58 | 1019.4 |
| 20260502163012 | 66 | 238 | 8.0 | 13.0 | 0.00 | 0.00 | 0.00 | 56 | 1020.0 |
| 20260502161512 | 66 | 243 | 8.0 | 14.0 | 0.00 | 0.00 | 0.00 | 54 | 1019.8 |
| 20260502151512 | 66 | 203 | 4.0 | 10.0 | 0.00 | 0.00 | 0.00 | 58 | 1020.1 |
| 20260502123012 | 64 | 120 | 6.0 | 13.0 | 0.00 | 0.00 | 0.00 | 60 | 1021.8 |
| 20260502121512 | 65 | 148 | 6.0 | 13.0 | 0.00 | 0.00 | 0.00 | 60 | 1022.0 |
| 20260502114512 | 65 | 134 | 4.0 | 12.0 | 0.00 | 0.00 | 0.00 | 60 | 1022.1 |
| 20260502113012 | 65 | 131 | 5.0 | 11.0 | 0.00 | 0.00 | 0.00 | 60 | 1022.4 |
| 20260502111512 | 64 | 127 | 5.0 | 13.0 | 0.00 | 0.00 | 0.00 | 60 | 1022.4 |
| 20260502110012 | 63 | 112 | 7.0 | 16.0 | 0.00 | 0.00 | 0.00 | 60 | 1022.6 |
| 20260502104512 | 63 | 118 | 7.0 | 14.0 | 0.00 | 0.00 | 0.00 | 59 | 1022.9 |
| 20260502103012 | 62 | 118 | 7.0 | 11.0 | 0.00 | 0.00 | 0.00 | 58 | 1022.9 |
| 20260502101512 | 61 | 112 | 8.0 | 16.0 | 0.00 | 0.00 | 0.00 | 57 | 1023.1 |
| 20260502071512 | 54 | 103 | 6.0 | 14.0 | 0.00 | 0.00 | 0.00 | 1 | 1023.0 |
| 20260502070012 | 54 | 99 | 5.0 | 12.0 | 0.00 | 0.00 | 0.00 | 1 | 1023.1 |
| 20260502064511 | 53 | 99 | 4.0 | 11.0 | 0.00 | 0.00 | 0.00 | 1 | 1023.2 |
| 20260502063012 | 52 | 100 | 3.0 | 9.0 | 0.00 | 0.00 | 0.00 | 1 | 1023.3 |
| 20260502060012 | 52 | 96 | 5.0 | 10.0 | 0.00 | 0.00 | 0.00 | 1 | 1022.9 |
| 20260502054511 | 52 | 93 | 5.0 | 10.0 | 0.00 | 0.00 | 0.00 | 1 | 1022.8 |
| 20260502053012 | 52 | 99 | 4.0 | 11.0 | 0.00 | 0.00 | 0.00 | 1 | 1022.9 |
| 20260502051511 | 52 | 98 | 5.0 | 9.0 | 0.00 | 0.00 | 0.00 | 1 | 1022.9 |
| 20260502050012 | 52 | 100 | 5.0 | 8.0 | 0.00 | 0.00 | 0.00 | 1 | 1022.8 |
| 20260502044512 | 52 | 102 | 4.0 | 9.0 | 0.00 | 0.00 | 0.00 | 1 | 1022.9 |
| 20260502041511 | 52 | 103 | 5.0 | 10.0 | 0.00 | 0.00 | 0.00 | 1 | 1022.9 |
| 20260502040011 | 53 | 100 | 4.0 | 11.0 | 0.00 | 0.00 | 0.00 | 1 | 1023.1 |
| 20260502034512 | 53 | 90 | 4.0 | 10.0 | 0.00 | 0.00 | 0.00 | 1 | 1023.0 |
| 20260502033011 | 53 | 96 | 4.0 | 11.0 | 0.00 | 0.00 | 0.00 | 1 | 1023.1 |
| 20260502031511 | 53 | 101 | 4.0 | 9.0 | 0.00 | 0.00 | 0.00 | 1 | 1023.3 |
| 20260502030012 | 53 | 93 | 4.0 | 11.0 | 0.00 | 0.00 | 0.00 | 1 | 1023.4 |